Location: Newark
(45.2500°N, 7.5833°E)
Time: 03:41:37
(UTC+00:00)

Tiros 1 despin weight - Pass Details

Date: 02 February 2020
Orbit: 594 x 642 km, 48.2° (Epoch: 16 February)

Event Time Altitude Azimuth Distance (km) Brightness Sun altitude
Rises 08:26:36 0° 243° (WSW) 2,831 ? 13.5°
Reaches altitude 10° 08:28:52 10° 242° (WSW) 1,936 ? 13.8°
Maximum altitude 08:33:18 77° 157° (SSE) 625 ? 14.4°
Drops below altitude 10° 08:37:49 10° 71° (ENE) 1,969 ? 15.0°
Sets 08:40:09 0° 70° (ENE) 2,884 ? 15.2°
